Showing default

AMC-14, 32708

Orbit data source: Space-Track

AMC-14, 32708 is a payload satellite owned by SES Americom (US) in GEO that was launched on Fri, 14 Mar 2008 UTC via a PROTON-M/BRIZ-M launch vehicle from the Tyuratam Missile And Space Complex (TTMTR). Payload-class satellites include a variety of spacecraft equipped with specific instruments for various scientific and technological missions. These include communications satellites like Starlink; space stations such as the ISS; scientific satellites like the Hubble; Earth observation satellites from companies like Planet Labs, Umbra, and HawkEye 360; GPS; miniature CubeSats for education and research; and military/defense satellites.

Not visible in the next 10 days
Identifier
32708, 2008-011A
Orbit
GEO
Country
Flag of USUS
Related business
Manufacturer
LMCSS
Mission
Partially operational Commercial Communications
Bus & Motor
A2100AXS, LEROS 1C
Mass
4,140 kg wet, 2,010 kg dry
Launch date (UTC)
2008-03-14 (18 years ago)
Launch vehicle
PROTON-M/BRIZ-M
Launch site
Tyuratam Missile And Space Complex (TTMTR)
Object type
Payload
Rocket body
Debris
Shape & HBR
Box + 2 Pan, 13.0 m
Radar Cross Section
28.574 m², Large (>1 m²)

Expand to show TLE details & history
Last TLE update: 3 days ago

TLE from 3 days ago
0 AMC-14
1 32708U 08011A   26171.12004348 -.00000068  00000-0  00000-0 0  9994
2 32708  24.0077  20.4835 0045448   7.3617 350.1570  1.00355445 68195
Epoch: 2026-06-20T02:52Z
TLE epoch observation values (Epoch: 2026-06-20T02:52:51.756Z)
Latitude
-1.05264°
Longitude
66.58498°
Altitude
35,574.916 km
Speed
3.089 km/s
True Right ascension
01h 12m 33s
True Declination
-1° 03' 06"
Sunlit
Object was in daylight at epoch
Visualization orbit readout
Latitude
Unknown
Longitude
Unknown
Altitude
Unknown
Speed
Unknown
Apparent Right ascension
Unknown
Apparent Declination
Unknown
Sunlit
N/A
Visualization observer readout
Local Sidereal Time
03:26:57
Azimuth
Unknown
Elevation
Unknown
Doppler factor
Unknown
Orbital elements
Apogee altitude
35,955.497 km
Perigee altitude
35,572.442 km
Semi-major axis
42,142.107 km
Eccentricity
0.00454
Inclination
24.0077°
RAAN
20.4835°
Arg. of periapsis
7.3617°
True anomaly
350.06747°
Mean anomaly
350.157°
Eccentric anomaly
350.11229°
Mean motion
0.25088 °/min
Orbital period
1,434.94 mins
BSTAR
0
Loading maneuver chart data...
Computing Atmospheric mass density...
Loading historical data...
Loading historical data...
Loading historical data...
Loading historical data...
Loading historical data...
Loading historical data...
Loading historical data...

Documentation

Showing up to 5 results
|